Weather History for Calgary Springbank AB, Alberta

Change the Weather History Date:

Friday, July 5, 2013

  Actual Average Record
Temperature  
Mean Temperature 55 °F -  
Max Temperature 64 °F 70 °F - ()
Min Temperature 46 °F 44 °F - ()
Degree Days  
Heating Degree Days 10    
Growing Degree Days 5 (Base 50)    
Moisture  
Dew Point 49 °F    
Average Humidity 80    
Maximum Humidity 100    
Minimum Humidity 51    
Precipitation  
Precipitation 0.39 in - - ()
Sea Level Pressure  
Sea Level Pressure 29.96 in    
Wind  
Wind Speed 7 mph ()    
Max Wind Speed 13 mph    
Max Gust Speed 21 mph    
Visibility 13.5 miles    
Events Rain , Hail , Thunderstorm    
T = Trace of Precipitation, MM = Missing Value Source: Averaged Metar Reports

Daily Weather History Graph

Daily Weather History Graph

Search for Another Location

Airport:

Trip Planner

Search our weather history database for the weather conditions in past years. The results will help you decide how hot, cold, wet, or windy it might be!

Date:

Astronomy

Jul. 05, 2013 Rise Set
Actual Time 5:30 AM MDT 9:53 PM MDT
Civil Twilight 4:44 AM MDT 10:39 PM MDT
Nautical Twilight 3:36 AM MDT 11:47 PM MDT
Astronomical Twilight 2:14 AM MDT 1:09 AM MDT
Moon 3:40 AM MDT (7/5) 7:45 PM MDT (7/5)
Length of Visible Light 17h 54m
Length of Day
16h 23m
Waning Crescent, 6% of the Moon is Illuminated
Jul 5
Waning Crescent
Jul 8
New
Jul 15
First Quarter
Jul 22
Full
Jul 29
Last Quarter

Hourly Weather History & Observations

Time (MDT) Temp. Windchill Dew Point Humidity Pressure Visibility Wind Dir Wind Speed Gust Speed Precip Events Conditions
5:00 AM 50.0 °F - 48.2 °F 94% 29.94 in 15.0 mi NW 6.9 mph - N/A   Mostly Cloudy
6:00 AM 47 °F - 46 °F 92% 29.95 in 19 mi NW 5.8 mph - -   Mostly Cloudy
6:00 AM 46.4 °F 43.5 °F 44.6 °F 93% 29.95 in 20.0 mi WNW 5.8 mph - N/A   Mostly Cloudy
7:00 AM 50.0 °F - 48.2 °F 94% 29.97 in 25.0 mi WNW 3.5 mph - N/A   Mostly Cloudy
8:00 AM 51.8 °F - 50.0 °F 94% 29.99 in 30.0 mi North 9.2 mph - N/A   Mostly Cloudy
9:00 AM 55.4 °F - 48.2 °F 77% 29.99 in 30.0 mi NNW 10.4 mph - N/A   Mostly Cloudy
10:00 AM 59.0 °F - 48.2 °F 67% 29.98 in 30.0 mi North 10.4 mph - N/A   Mostly Cloudy
11:00 AM 60.8 °F - 48.2 °F 63% 29.97 in 30.0 mi NNE 6.9 mph - N/A   Mostly Cloudy
12:00 PM 62 °F - 48 °F 51% 29.94 in 28 mi NE 6.9 mph - -   Scattered Clouds
12:00 PM 62.6 °F - 48.2 °F 59% 29.94 in 30.0 mi NNE 5.8 mph - N/A   Scattered Clouds
1:00 PM 62.6 °F - 46.4 °F 55% 29.95 in 25.0 mi East 8.1 mph - N/A   Mostly Cloudy
2:00 PM 62.6 °F - 48.2 °F 59% 29.94 in 30.0 mi ENE 11.5 mph - N/A   Mostly Cloudy
3:00 PM 64.4 °F - 50.0 °F 59% 29.92 in 30.0 mi ENE 12.7 mph - N/A   Mostly Cloudy
4:00 PM 62.6 °F - 48.2 °F 59% 29.93 in 30.0 mi ENE 6.9 mph - N/A   Overcast
4:40 PM 59.0 °F - 50.0 °F 72% 29.94 in 20.0 mi East 10.4 mph - N/A Hail Light Hail Showers
4:46 PM 57.2 °F - 50.0 °F 77% 29.95 in 20.0 mi East 9.2 mph - N/A Rain Rain Showers
5:00 PM 55.4 °F - 50.0 °F 82% 29.96 in 15.0 mi ENE 11.5 mph 19.6 mph N/A Rain , Thunderstorm Light Thunderstorms and Rain
5:46 PM 53.6 °F - 51.8 °F 94% 29.98 in 5.0 mi NE 3.5 mph - N/A Rain , Thunderstorm Thunderstorms and Rain
6:00 PM 52 °F - 51 °F 94% 29.99 in 5 mi ESE 9.2 mph - - Rain , Thunderstorm Thunderstorms and Rain
6:00 PM 51.8 °F - 50.0 °F 94% 29.99 in 5.0 mi ENE 5.8 mph 20.7 mph N/A Rain , Thunderstorm Thunderstorms and Rain
7:00 PM 50.0 °F - 50.0 °F 100% 29.98 in 5.0 mi ENE 10.4 mph - N/A Rain Rain
7:28 PM 50.0 °F - 48.2 °F 94% 29.98 in 10.0 mi ENE 9.2 mph - N/A Rain Light Rain
8:00 PM 51.8 °F - 50.0 °F 94% 29.98 in 15.0 mi North 4.6 mph - N/A   Overcast
9:00 PM 51.8 °F - 50.0 °F 94% 29.97 in 15.0 mi Variable 2.3 mph - N/A Rain Light Rain
10:00 PM 51.8 °F - 50.0 °F 94% 29.95 in 20.0 mi WNW 5.8 mph - N/A   Overcast